Location: Melbourne
(37.8666°S, 145.1333°E)
Time: 20:33:06
(UTC+10:00)

Amateur Radio Satellites - All Passes

Search period start: 25 July 2014 20:03
Search period end: 26 July 2014 20:03
Location: Melbourne, 37.8666°S, 145.1333°E

Satellite Date Start Highest point End Downlink Frequencies (MHz)
Time Altitude Azimuth
JAS-2 25 Jul 20:16:00 20:21:03 23° 244° (WSW) 20:26:27 435.800 - 435.900 CW/SSB, 435.910 FM
ISS 25 Jul 20:20:47 20:23:43 27° 312° (NW) 20:26:36 145.800 FM
Saudisat 1A 25 Jul 20:30:41 20:35:03 65° 237° (WSW) 20:39:28 436.775 MHz
PANSAT 25 Jul 20:49:56 20:52:47 19° 355° (N) 20:55:38 not established
AO-40 25 Jul 21:01:44 02:52:10 56° 1° (N) 09:24:58 Beacon 2401.320
Sapphire 25 Jul 21:21:55 21:25:45 19° 132° (SE) 21:29:33 437.095 MHz 1200 baud AX-25 AFSK
KITSAT 1 25 Jul 21:23:55 21:28:28 16° 213° (SSW) 21:33:02 435.175 FM
HO-68 25 Jul 21:31:30 21:38:48 79° 75° (ENE) 21:46:00 435.675 MHz FM
UKube-1 25 Jul 21:33:16 21:37:41 67° 78° (ENE) 21:42:03 145.840 MHz, 145.915 MHz
PCSat 25 Jul 21:55:03 22:00:04 36° 125° (SE) 22:05:01 145.825 MHz
Oscar 11 25 Jul 22:23:16 22:27:40 65° 255° (WSW) 22:31:58 145.825 FM, Beacon 2401.500 USB
PANSAT 25 Jul 22:31:13 22:32:19 11° 342° (NNW) 22:33:25 not established
FUNcube-1 25 Jul 22:32:24 22:37:03 58° 80° (E) 22:41:35 145.950 - 145.970 MHz USB
Sapphire 25 Jul 23:04:15 23:09:38 65° 294° (WNW) 23:14:59 437.095 MHz 1200 baud AX-25 AFSK
UKube-1 25 Jul 23:12:04 23:13:17 11° 242° (WSW) 23:14:31 145.840 MHz, 145.915 MHz
HO-68 25 Jul 23:20:47 23:25:39 20° 238° (WSW) 23:30:31 435.675 MHz FM
PCSat 25 Jul 23:38:41 23:43:20 29° 288° (WNW) 23:47:57 145.825 MHz
RS-15 25 Jul 23:59:50 00:08:42 25° 80° (E) 00:17:44 29.354 - 29.394 USB, Beacon 29.352 USB
FUNcube-1 26 Jul 00:10:29 00:12:54 14° 244° (WSW) 00:15:17 145.950 - 145.970 MHz USB
SO-50 26 Jul 00:19:31 00:23:43 30° 67° (ENE) 00:27:54 436.795 FM
Oscar 19 26 Jul 00:23:10 00:27:46 32° 111° (ESE) 00:32:25 437.125 CW, 437.150 USB
Oscar 16 26 Jul 00:50:08 00:55:16 62° 107° (ESE) 01:00:29 437.025 USB, Beacon 2401.1428
ITAMSAT 1 26 Jul 01:02:51 01:07:33 35° 111° (ESE) 01:12:17 435.822 SSB
AO-Echo 26 Jul 01:12:13 01:16:40 40° 109° (ESE) 01:21:07 ?
AO-27 26 Jul 01:20:32 01:25:34 54° 108° (ESE) 01:30:41 436.795 MHz FM
Gurwin Techsat 1B 26 Jul 01:21:00 01:25:00 22° 115° (ESE) 01:29:02 435.225 FM
Uribyol 2 26 Jul 01:22:53 01:27:58 59° 107° (ESE) 01:33:09 436.500 FM
KITSAT 1 26 Jul 01:24:42 01:28:40 14° 150° (SSE) 01:32:37 435.175 FM
JAS-1B 26 Jul 01:57:14 02:03:55 59° 107° (ESE) 02:09:48 435.800 - 435.900 CW/SSB
SO-50 26 Jul 01:59:53 02:04:13 32° 231° (SW) 02:08:32 436.795 FM
Oscar 19 26 Jul 02:02:35 02:07:03 29° 276° (W) 02:11:35 437.125 CW, 437.150 USB
RS-15 26 Jul 02:07:41 02:19:41 83° 239° (WSW) 02:32:06 29.354 - 29.394 USB, Beacon 29.352 USB
Oscar 10/S400 26 Jul 02:23:29 04:58:48 23° 91° (E) 06:21:28 145.825 - 145.975 CW/USB, Beacon 145.810 USB
Oscar 16 26 Jul 02:32:11 02:35:01 15° 271° (W) 02:37:52 437.025 USB, Beacon 2401.1428
TMSAT-1 26 Jul 02:37:28 02:42:47 82° 105° (ESE) 02:48:10 436.925 FM
ITAMSAT 1 26 Jul 02:42:48 02:47:04 26° 275° (W) 02:51:23 435.822 SSB
UOSAT-12 26 Jul 02:42:56 02:47:21 56° 63° (ENE) 02:51:44 437.025 FM, 437.400 FM
AO-Echo 26 Jul 02:52:19 02:55:36 18° 274° (W) 02:58:54 ?
Gurwin Techsat 1B 26 Jul 02:59:32 03:04:37 45° 279° (W) 03:09:46 435.225 FM
AO-27 26 Jul 03:02:07 03:05:23 17° 272° (W) 03:08:42 436.795 MHz FM
AO-7 26 Jul 03:04:03 03:11:53 48° 115° (ESE) 03:19:46 29.400 - 29.500 MHz
Uribyol 2 26 Jul 03:04:52 03:07:49 15° 272° (W) 03:10:48 436.500 FM
Uosat F 26 Jul 03:05:34 03:10:04 34° 111° (ESE) 03:14:37 435.120 FM
KITSAT 1 26 Jul 03:18:19 03:26:14 52° 125° (SE) 03:34:05 435.175 FM
OPAL 26 Jul 03:44:42 03:49:14 30° 82° (E) 03:53:40 ?
JAS-1B 26 Jul 03:50:18 03:54:49 19° 275° (W) 03:59:01 435.800 - 435.900 CW/SSB
TMSAT-1 26 Jul 04:22:06 04:23:17 11° 269° (W) 04:24:29 436.925 FM
RS-15 26 Jul 04:24:14 04:34:20 29° 213° (SSW) 04:44:36 29.354 - 29.394 USB, Beacon 29.352 USB
UOSAT-12 26 Jul 04:24:51 04:27:48 17° 226° (SW) 04:30:45 437.025 FM, 437.400 FM
JAS-2 26 Jul 04:42:53 04:46:34 20° 117° (ESE) 04:50:25 435.800 - 435.900 CW/SSB, 435.910 FM
Uosat F 26 Jul 04:44:46 04:48:52 25° 276° (W) 04:53:01 435.120 FM
Hamsat 26 Jul 04:54:13 04:58:01 29° 110° (ESE) 05:01:51 145.90 MHz
AO-7 26 Jul 04:57:20 05:04:45 36° 278° (W) 05:12:16 29.400 - 29.500 MHz
Saudisat 1A 26 Jul 04:59:05 05:03:29 58° 123° (ESE) 05:07:51 436.775 MHz
KITSAT 1 26 Jul 05:14:13 05:21:18 34° 287° (WNW) 05:28:22 435.175 FM
OPAL 26 Jul 05:23:33 05:28:01 30° 246° (WSW) 05:32:24 ?
STRAND 1 26 Jul 06:01:57 06:05:23 18° 87° (E) 06:08:48 ?
JAS-2 26 Jul 06:26:17 06:31:16 46° 279° (W) 06:36:32 435.800 - 435.900 CW/SSB, 435.910 FM
SO-67 26 Jul 06:27:02 06:30:23 44° 105° (ESE) 06:33:47 435.3500 MHz FM
Hamsat 26 Jul 06:30:27 06:33:57 23° 274° (W) 06:37:28 145.90 MHz
Saudisat 1A 26 Jul 06:40:31 06:42:33 13° 288° (WNW) 06:44:36 436.775 MHz
RS-15 26 Jul 06:45:22 06:52:56 18° 177° (S) 07:00:27 29.354 - 29.394 USB, Beacon 29.352 USB
STRAND 1 26 Jul 07:39:48 07:44:50 51° 252° (WSW) 07:49:50 ?
HO-68 26 Jul 07:57:52 08:04:41 50° 112° (ESE) 08:11:35 435.675 MHz FM
UKube-1 26 Jul 08:27:00 08:31:11 46° 108° (ESE) 08:35:24 145.840 MHz, 145.915 MHz
SO-50 26 Jul 08:53:24 08:56:39 18° 134° (SE) 08:59:49 436.795 FM
RS-15 26 Jul 09:00:21 09:11:05 33° 143° (SE) 09:21:25 29.354 - 29.394 USB, Beacon 29.352 USB
Oscar 11 26 Jul 09:16:07 09:20:30 78° 104° (ESE) 09:24:58 145.825 FM, Beacon 2401.500 USB
MaSat-1 26 Jul 09:24:24 09:28:15 53° 68° (ENE) 09:31:34 437.345 MHz
FUNcube-1 26 Jul 09:27:08 09:31:11 36° 109° (ESE) 09:35:23 145.950 - 145.970 MHz USB
HO-68 26 Jul 09:46:30 09:52:33 29° 276° (W) 09:58:42 435.675 MHz FM
UKube-1 26 Jul 10:05:16 10:07:37 14° 273° (W) 10:09:58 145.840 MHz, 145.915 MHz
SO-50 26 Jul 10:33:04 10:37:32 52° 296° (WNW) 10:41:52 436.795 FM
Lituanica SAT-1 26 Jul 11:03:49 11:05:49 40° 217° (SW) 11:07:51 437.275 MHz beacon
FUNcube-1 26 Jul 11:04:36 11:07:42 19° 273° (W) 11:10:53 145.950 - 145.970 MHz USB
RS-15 26 Jul 11:12:51 11:25:05 83° 297° (WNW) 11:36:41 29.354 - 29.394 USB, Beacon 29.352 USB
UOSAT-12 26 Jul 11:14:24 11:18:17 29° 129° (SE) 11:22:10 437.025 FM, 437.400 FM
ISS 26 Jul 11:25:27 11:28:10 23° 49° (NE) 11:30:54 145.800 FM
Sapphire 26 Jul 12:02:26 12:06:26 21° 74° (ENE) 12:10:27 437.095 MHz 1200 baud AX-25 AFSK
PCSat 26 Jul 12:34:50 12:39:59 46° 69° (ENE) 12:45:10 145.825 MHz
Oscar 19 26 Jul 12:38:27 12:40:38 13° 90° (E) 12:42:48 437.125 CW, 437.150 USB
UOSAT-12 26 Jul 12:54:36 12:58:19 27° 293° (WNW) 13:02:02 437.025 FM, 437.400 FM
ISS 26 Jul 13:01:38 13:04:45 35° 213° (SSW) 13:07:55 145.800 FM
Oscar 16 26 Jul 13:04:26 13:08:43 25° 85° (E) 13:12:56 437.025 USB, Beacon 2401.1428
ITAMSAT 1 26 Jul 13:18:56 13:21:46 15° 89° (E) 13:24:36 435.822 SSB
AO-Echo 26 Jul 13:22:00 13:25:00 16° 87° (E) 13:28:02 ?
RS-15 26 Jul 13:28:22 13:35:31 18° 277° (W) 13:42:31 29.354 - 29.394 USB, Beacon 29.352 USB
AO-27 26 Jul 13:36:09 13:40:15 23° 86° (E) 13:44:19 436.795 MHz FM
Uribyol 2 26 Jul 13:38:08 13:42:26 25° 85° (E) 13:46:40 436.500 FM
JAS-1B 26 Jul 13:43:49 13:47:33 16° 86° (E) 13:51:33 435.800 - 435.900 CW/SSB
Sapphire 26 Jul 13:44:13 13:49:28 48° 238° (WSW) 13:54:45 437.095 MHz 1200 baud AX-25 AFSK
Oscar 19 26 Jul 14:15:14 14:20:27 69° 254° (WSW) 14:25:34 437.125 CW, 437.150 USB
PCSat 26 Jul 14:19:11 14:23:36 25° 231° (SW) 14:28:02 145.825 MHz
ISS 26 Jul 14:41:35 14:42:17 11° 194° (SSW) 14:42:59 145.800 FM
Oscar 16 26 Jul 14:43:21 14:48:06 36° 249° (WSW) 14:52:47 437.025 USB, Beacon 2401.1428
TMSAT-1 26 Jul 14:55:30 15:00:29 38° 82° (E) 15:05:24 436.925 FM
ITAMSAT 1 26 Jul 14:56:26 15:01:40 62° 253° (WSW) 15:06:50 435.822 SSB
OPAL 26 Jul 14:57:29 15:02:27 46° 111° (ESE) 15:07:29 ?
AO-Echo 26 Jul 14:59:11 15:04:02 53° 253° (WSW) 15:08:59 ?
AO-7 26 Jul 15:09:47 15:14:19 15° 89° (E) 15:18:49 29.400 - 29.500 MHz
AO-27 26 Jul 15:14:56 15:19:52 41° 250° (WSW) 15:24:46 436.795 MHz FM
Uribyol 2 26 Jul 15:17:06 15:21:57 38° 250° (WSW) 15:26:46 436.500 FM
Uosat F 26 Jul 15:17:13 15:19:00 12° 89° (E) 15:20:46 435.120 FM
Gurwin Techsat 1B 26 Jul 15:17:19 15:22:44 85° 77° (ENE) 15:28:05 435.225 FM
JAS-1B 26 Jul 15:32:22 15:38:29 72° 254° (WSW) 15:45:36 435.800 - 435.900 CW/SSB
TMSAT-1 26 Jul 16:35:49 16:40:10 26° 247° (WSW) 16:44:30 436.925 FM
OPAL 26 Jul 16:37:39 16:41:30 21° 276° (W) 16:45:24 ?
Uosat F 26 Jul 16:53:10 16:58:15 72° 254° (WSW) 17:03:18 435.120 FM
AO-7 26 Jul 16:59:38 17:08:05 87° 72° (ENE) 17:16:28 29.400 - 29.500 MHz
Gurwin Techsat 1B 26 Jul 16:59:55 17:01:55 12° 240° (WSW) 17:03:54 435.225 FM
STRAND 1 26 Jul 17:16:13 17:20:05 22° 115° (ESE) 17:24:00 ?
Lituanica SAT-1 26 Jul 17:17:03 17:19:07 43° 143° (SE) 17:21:10 437.275 MHz beacon
JAS-2 26 Jul 17:35:30 17:41:26 28° 85° (E) 17:47:44 435.800 - 435.900 CW/SSB, 435.910 FM
KITSAT 1 26 Jul 17:44:36 17:52:05 44° 70° (ENE) 17:59:38 435.175 FM
ISS 26 Jul 17:55:31 17:58:09 21° 153° (SSE) 18:00:46 145.800 FM
Hamsat 26 Jul 18:17:07 18:21:28 75° 79° (ENE) 18:25:42 145.90 MHz
PANSAT 26 Jul 18:45:26 18:48:13 19° 7° (N) 18:51:00 not established
AO-7 26 Jul 18:54:05 18:59:49 21° 234° (SW) 19:05:33 29.400 - 29.500 MHz
STRAND 1 26 Jul 18:54:09 18:58:58 42° 279° (W) 19:03:52 ?
Oscar 10/S400 26 Jul 18:58:50 19:10:32 13° 310° (NW) 19:19:31 145.825 - 145.975 CW/USB, Beacon 145.810 USB
Saudisat 1A 26 Jul 19:04:46 19:08:12 23° 69° (ENE) 19:11:39 436.775 MHz
JAS-2 26 Jul 19:19:51 19:26:34 54° 252° (WSW) 19:33:54 435.800 - 435.900 CW/SSB, 435.910 FM
MaSat-1 26 Jul 19:21:25 19:23:55 88° 115° (ESE) 19:26:33 437.345 MHz
SO-67 26 Jul 19:25:33 19:29:06 73° 79° (ENE) 19:32:35 435.3500 MHz FM
ISS 26 Jul 19:31:47 19:35:05 52° 316° (NW) 19:38:20 145.800 FM
KITSAT 1 26 Jul 19:39:57 19:47:29 42° 231° (SW) 19:55:06 435.175 FM
